Flag for Germany Weather past 2 weeks in Monheim am Rhein, North Rhine-Westphalia, Germany

Now
66 °F

Sunny.


Feels Like: 66 °F
Forecast: 47 / 74 °F
Wind: 9 mph from West

Location: Duesseldorf

Current Time: Jun 3, 2015 at 6:01:21 PM

Latest Report: Jun 3, 2015 at 5:20 PM


Visibility: 10 mi

Pressure: 30.24 "Hg

Humidity: 43%

Dew point: 43 °F

Location of Monheim am RheinLocation

Historic Weather in Monheim am Rhein — Graph

°F

Monheim am Rhein temperature yesterday

Maximum temperature yesterday: 70 °F (at 6:20 PM)
Minimum temperature yesterday: 54 °F (at 12:20 AM)
Average temperature yesterday: 61 °F

Past Weeks' High & Low Weather Summary

 TemperatureHumidityPressure
High70 °F (May 22, 3:50 PM)100% (May 29, 12:50 AM)30.33 "Hg (May 29, 12:50 AM)
Low37 °F (May 21, 4:20 AM)33% (May 22, 3:50 PM)29.74 "Hg (May 29, 5:20 PM)
Average56 °F67%30.03 "Hg
* Reported May 19 4:20 PM — Jun 3 4:50 PM, Monheim am Rhein, Weather by CustomWeather, © 2015

Note: Actual official high and low records may vary slightly from our data, if they occured in-between our weather recording intervals... More about our weather records

Advertising

Monheim am Rhein weather history for previous 24 hours

 ConditionsComfort  
Time TempWeatherWind HumidityBarometerVisibility
4:50 PM
Wed, Jun 3
66 °FScattered clouds.10 mph43%30.24 "HgN/A
4:20 PM66 °FPartly sunny.10 mph46%30.24 "HgN/A
3:50 PM66 °FScattered clouds.10 mph46%30.24 "HgN/A
3:20 PM66 °FScattered clouds.10 mph46%30.24 "HgN/A
2:50 PM66 °FScattered clouds.13 mph46%30.21 "HgN/A
2:20 PM66 °FScattered clouds.13 mph46%30.21 "HgN/A
1:50 PM64 °FScattered clouds.12 mph49%30.21 "HgN/A
1:20 PM64 °FScattered clouds.13 mph49%30.18 "HgN/A
12:50 PM64 °FScattered clouds.13 mph43%30.18 "HgN/A
12:20 PM64 °FScattered clouds.15 mph52%30.15 "HgN/A
11:50 AM63 °FPartly sunny.16 mph56%30.15 "HgN/A
11:20 AM63 °FPartly sunny.16 mph59%30.15 "HgN/A
10:50 AM61 °FPartly sunny.17 mph63%30.15 "HgN/A
10:20 AM61 °FPartly sunny.18 mph63%30.12 "HgN/A
9:50 AM61 °FPartly sunny.15 mph63%30.12 "HgN/A
9:20 AM59 °FPartly sunny.13 mph68%30.09 "HgN/A
8:50 AM59 °FPartly sunny.14 mph68%30.09 "HgN/A
8:20 AM59 °FBroken clouds.13 mph72%30.07 "HgN/A
7:50 AM57 °FPartly sunny.10 mph77%30.07 "HgN/A
7:20 AM57 °FPartly sunny.12 mph82%30.07 "HgN/A
6:50 AM57 °FPartly sunny.12 mph82%30.04 "HgN/A
6:20 AM57 °FPassing clouds.10 mph88%30.04 "HgN/A
5:20 AM64 °FPassing clouds.14 mph68%29.98 "HgN/A
4:50 AM64 °FPassing clouds.13 mph68%29.98 "HgN/A
4:20 AM64 °FPassing clouds.14 mph68%29.98 "HgN/A
3:50 AM64 °FPassing clouds.14 mph68%29.98 "HgN/A
3:20 AM66 °FPassing clouds.10 mph64%29.95 "HgN/A
2:50 AM66 °FClear.14 mph64%29.95 "Hg10 mi
2:20 AM66 °FPassing clouds.15 mph64%29.95 "HgN/A
1:50 AM66 °FPassing clouds.13 mph64%29.95 "HgN/A
1:20 AM66 °FPassing clouds.15 mph64%29.95 "HgN/A
12:50 AM66 °FPassing clouds.13 mph68%29.95 "HgN/A
12:20 AM66 °FPartly cloudy.13 mph68%29.95 "HgN/A
11:20 PM
Tue, Jun 2
64 °FPassing clouds.9 mph73%29.95 "HgN/A
10:50 PM63 °FPassing clouds.9 mph77%29.95 "HgN/A
10:20 PM63 °FPassing clouds.9 mph77%29.95 "HgN/A
9:50 PM64 °FPassing clouds.10 mph68%29.92 "HgN/A
9:20 PM68 °FScattered clouds.16 mph60%29.92 "HgN/A
8:50 PM68 °FScattered clouds.15 mph60%29.92 "HgN/A
8:20 PM70 °FPartly sunny.16 mph60%29.92 "HgN/A
7:50 PM68 °FPartly sunny.10 mph64%29.92 "HgN/A
7:20 PM68 °FPartly sunny.13 mph64%29.89 "HgN/A
6:50 PM70 °FPartly sunny.15 mph57%29.89 "HgN/A
6:20 PM70 °FPartly sunny.17 mph57%29.89 "HgN/A
Weather by CustomWeather, © 2015

See weather overviewHow to use our weather pages